This is the latest recevied weather packets stored in our database for station/object KO6HRZ. If no packets are shown the sender has not sent any weather packets the latest 10 day(s).
| Time | Temp. | Humidity | Pressure | Rain* | Wind** | Luminosity | Snow |
|---|---|---|---|---|---|---|---|
| 1788422851 | 15.56° C | 85% | 1014.1 hPa | 0 mm | - | 0 W/m² | - |
| 1788422248 | 16.11° C | 85% | 1014.2 hPa | 0 mm | - | 0 W/m² | - |
| 1788421647 | 16.11° C | 84% | 1014.2 hPa | 0 mm | - | 0 W/m² | - |
| 1788421044 | 16.11° C | 84% | 1014 hPa | 0 mm | - | 0 W/m² | - |
| 1788420440 | 16.11° C | 83% | 1014.1 hPa | 0 mm | - | 0 W/m² | - |
| 1788419839 | 16.11° C | 83% | 1014 hPa | 0 mm | - | 0 W/m² | - |
| 1788419234 | 16.67° C | 82% | 1014.1 hPa | 0 mm | - | 0 W/m² | - |
| 1788418631 | 16.67° C | 82% | 1014 hPa | 0 mm | - | 0 W/m² | - |
| 1788418029 | 16.67° C | 81% | 1014.2 hPa | 0 mm | - | 0 W/m² | - |
| 1788417426 | 16.67° C | 80% | 1013.9 hPa | 0 mm | - | 0 W/m² | - |
| 1788416823 | 17.22° C | 79% | 1013.9 hPa | 0 mm | - | 0 W/m² | - |
| 1788416219 | 17.22° C | 78% | 1013.8 hPa | 0 mm | - | 0 W/m² | - |
| 1788415619 | 17.22° C | 77% | 1014 hPa | 0 mm | - | 0 W/m² | - |
| 1788415017 | 17.78° C | 76% | 1014 hPa | 0 mm | - | 0 W/m² | - |
| 1788414416 | 17.78° C | 75% | 1014.1 hPa | 0 mm | - | 0 W/m² | - |
| 1788413814 | 17.78° C | 74% | 1014.1 hPa | 0 mm | - | 0 W/m² | - |
| 1788413211 | 18.33° C | 72% | 1014.1 hPa | 0 mm | - | 0 W/m² | - |
| 1788412607 | 18.33° C | 71% | 1014.1 hPa | 0 mm | - | 0 W/m² | - |
| 1788412003 | 18.33° C | 69% | 1014.2 hPa | 0 mm | - | 0 W/m² | - |
| 1788411403 | 18.89° C | 68% | 1014.2 hPa | 0 mm | - | 0 W/m² | - |
| 1788410801 | 18.89° C | 67% | 1014.3 hPa | 0 mm | - | 0 W/m² | - |
| 1788410200 | 19.44° C | 66% | 1014.2 hPa | 0 mm | - | 0 W/m² | - |
| 1788409598 | 20° C | 65% | 1014.1 hPa | 0 mm | - | 0 W/m² | - |
| 1788408996 | 20° C | 65% | 1014.2 hPa | 0 mm | - | 0 W/m² | - |
| 1788408390 | 20° C | 65% | 1013.9 hPa | 0 mm | - | 0 W/m² | - |
* Rain latest hour (hover to see other rain measurements)
** Current wind speed in m/s (hover to see current wind gust speed)